STARLINK-32124, 60298

Orbit data source: Space-Track

STARLINK-32124, 60298 is a payload satellite owned by SpaceX/Seattle (US) in LEO that was launched on Sun, 28 Jul 2024 UTC via an FALCON 9 launch vehicle from the Air Force Eastern Test Range (AFETR). Payload-class satellites include a variety of spacecraft equipped with specific instruments for various scientific and technological missions. These include communications satellites like Starlink; space stations such as the ISS; scientific satellites like the Hubble; Earth observation satellites from companies like Planet Labs, Umbra, and HawkEye 360; GPS; miniature CubeSats for education and research; and military/defense satellites.

Loading next visibility...
Identifier
60298, 2024-132W
Orbit
LEO
Last TLE update
20 hours ago
Origin
Manufacturer
SpaceX/Seattle
Mission
Operational spacecraft
Bus & Motor
STARLINK V2M, Unknown motor
Mass
730 kg wet, ~700 kg dry
Launch date (UTC)
2024-07-28 (11 months ago)
Launch vehicle
FALCON 9
Launch site
Air Force Eastern Test Range (AFETR)
Object type
Payload
Rocket body
Debris
Shape & HBR
Unknown
Radar Cross Section
Large (>1 m²)

Expand to show TLE details & history

TLE from 20 hours ago
0 STARLINK-32124
1 60298U 24132W   25187.10270363 -.00000224  00000-0  45592-5 0  9991
2 60298  53.1596 118.0308 0000957  86.7479 273.3631 15.30197164 53807
Epoch: 2025-07-06T02:27Z
TLE epoch observation values (Epoch: 2025-07-06T02:27:53.593Z)
Latitude
-0.00005°
Longitude
156.72625°
Altitude
476.085 km
Speed
7.629 km/s
True Right ascension
07h 52m 07s
True Declination
0° 00' 00"
Sunlit
Object was in daylight at epoch
Visualization orbit readout
Latitude
-46.57729°
Longitude
100.90604°
Altitude
491.686 km
Speed
7.618 km/s
Apparent Right ascension
01h 17m 42s
Apparent Declination
-51° 34' 30"
Sunlit
Object is in daylight
Visualization observer readout
Local Sidereal Time
10:33:46
Azimuth
233.662° WSW
Elevation
-59.603°
Doppler factor
1
Orbital elements
Apogee altitude
476.136 km
Perigee altitude
474.824 km
Semi-major axis
6,853.617 km
Eccentricity
0.0001
Inclination
53.1596°
RAAN
118.0308°
Arg. of periapsis
86.7479°
True anomaly
Unknown
Mean anomaly
273.3631°
Eccentric anomaly
Unknown
Mean motion
3.82528 °/min
Orbital period
94.11 mins
BSTAR
0.0000045592
Loading maneuver chart data...
Loading SW <> Apogee altitude chart data...
Loading historical data...
Loading historical data...
Loading historical data...
Loading historical data...
Loading historical data...
Loading historical data...
Loading historical data...

STARLINK-32124 Visibility forecast

Observer location: undefined°, undefined°

Span
Click to sort rows by Start time (UTC) header in descending order
Start Az.
Max El. time (UTC)
Max El. Az.
Max El.
End time (UTC)
End Az.
6 mins2025-07-06 23:03:37.602Z266.143° W2025-07-06 23:06:37.602Z325.01° NNW27.412°2025-07-06 23:09:37.602Z30.501° NE
5 mins2025-07-07 04:01:37.602Z337.809° N2025-07-07 04:03:37.602Z29.232° NE28.506°2025-07-07 04:06:37.602Z94.27° ESE
5 mins2025-07-07 05:39:37.602Z277.631° WNW2025-07-07 05:41:37.602Z225.323° WSW27.398°2025-07-07 05:44:37.602Z165.935° S
4 mins2025-07-07 20:57:37.602Z176.092° S2025-07-07 20:59:37.602Z123.948° SE25.396°2025-07-07 21:01:37.602Z80.08° E
|